Time,TemperatureF,DewpointF,PressureIn,WindDirection,WindDirectionDegrees,WindSpeedMPH,WindSpeedGustMPH,Humidity,HourlyPrecipIn,Conditions,Clouds,dailyrainin,SoftwareType,DateUTC
2013-03-06 00:00:00,27.0,16.7,29.94,NNE,23,0.0,0.0,65,0.00,,,0.00,WUHU216HW,2013-03-06 05:00:00,
2013-03-06 00:05:00,27.0,16.7,29.94,NNE,23,0.0,0.0,65,0.00,,,0.00,WUHU216HW,2013-03-06 05:05:00,
2013-03-06 00:10:00,27.2,15.8,29.94,WNW,293,1.3,1.3,62,0.00,,,0.00,WUHU216HW,2013-03-06 05:10:00,
2013-03-06 00:15:00,27.4,16.4,29.94,West,270,0.4,1.6,63,0.00,,,0.00,WUHU216HW,2013-03-06 05:15:00,
2013-03-06 00:20:00,27.5,16.2,29.94,NE,45,0.0,1.6,62,0.00,,,0.00,WUHU216HW,2013-03-06 05:20:00,
2013-03-06 00:25:00,27.7,16.4,29.93,NE,45,0.0,0.4,62,0.00,,,0.00,WUHU216HW,2013-03-06 05:25:00,
2013-03-06 00:30:00,27.7,16.7,29.94,NE,45,0.0,0.2,63,0.00,,,0.00,WUHU216HW,2013-03-06 05:30:00,
2013-03-06 00:35:00,27.7,17.1,29.94,NE,45,0.0,0.2,64,0.00,,,0.00,WUHU216HW,2013-03-06 05:35:00,
2013-03-06 00:40:00,27.7,16.7,29.94,NE,45,0.0,0.0,63,0.00,,,0.00,WUHU216HW,2013-03-06 05:40:00,
2013-03-06 00:45:00,27.7,17.1,29.94,NE,45,0.0,0.0,64,0.00,,,0.00,WUHU216HW,2013-03-06 05:45:00,
2013-03-06 00:50:00,27.9,17.6,29.95,NE,45,0.7,0.7,65,0.00,,,0.00,WUHU216HW,2013-03-06 05:50:00,
2013-03-06 00:55:00,27.9,17.6,29.95,NE,45,0.0,0.7,65,0.00,,,0.00,WUHU216HW,2013-03-06 05:55:00,
2013-03-06 01:00:00,28.1,17.8,29.95,NE,45,0.0,0.4,65,0.00,,,0.00,WUHU216HW,2013-03-06 06:00:00,
2013-03-06 01:05:00,28.1,17.8,29.95,NE,45,0.0,0.4,65,0.00,,,0.00,WUHU216HW,2013-03-06 06:05:00,
2013-03-06 01:10:00,28.1,18.2,29.95,NE,45,0.0,0.0,66,0.00,,,0.00,WUHU216HW,2013-03-06 06:10:00,
2013-03-06 01:15:00,28.1,17.8,29.95,NE,45,0.0,0.0,65,0.00,,,0.00,WUHU216HW,2013-03-06 06:15:00,
2013-03-06 01:20:00,28.3,18.0,29.95,NE,45,0.0,0.0,65,0.00,,,0.00,WUHU216HW,2013-03-06 06:20:00,
2013-03-06 01:25:00,28.1,15.6,29.95,NNE,23,0.0,0.7,59,0.00,,,0.00,WUHU216HW,2013-03-06 06:25:00,
2013-03-06 01:30:00,28.1,15.2,29.95,NNE,23,0.4,0.7,58,0.00,,,0.00,WUHU216HW,2013-03-06 06:30:00,
2013-03-06 01:35:00,28.3,16.9,29.95,NNE,23,0.0,0.7,62,0.00,,,0.00,WUHU216HW,2013-03-06 06:35:00,
2013-03-06 01:40:00,28.3,17.3,29.95,NNE,23,0.0,0.4,63,0.00,,,0.00,WUHU216HW,2013-03-06 06:40:00,
2013-03-06 01:45:00,28.3,17.6,29.95,NNE,23,0.0,0.0,64,0.00,,,0.00,WUHU216HW,2013-03-06 06:45:00,
2013-03-06 01:51:00,28.4,17.8,29.95,NNE,23,0.0,0.0,64,0.00,,,0.00,WUHU216HW,2013-03-06 06:51:00,
2013-03-06 01:56:00,28.4,17.8,29.95,NNE,23,0.0,0.4,64,0.00,,,0.00,WUHU216HW,2013-03-06 06:56:00,
2013-03-06 02:01:00,28.4,18.2,29.95,NNE,23,0.0,0.4,65,0.00,,,0.00,WUHU216HW,2013-03-06 07:01:00,
2013-03-06 02:06:00,28.4,18.2,29.95,NNE,23,0.0,0.0,65,0.00,,,0.00,WUHU216HW,2013-03-06 07:06:00,
2013-03-06 02:11:00,28.4,18.2,29.95,NNE,23,0.0,0.0,65,0.00,,,0.00,WUHU216HW,2013-03-06 07:11:00,
2013-03-06 02:16:00,28.6,18.4,29.95,NNE,23,0.0,0.0,65,0.00,,,0.00,WUHU216HW,2013-03-06 07:16:00,
2013-03-06 02:21:00,28.6,18.4,29.94,NNE,23,0.0,0.0,65,0.00,,,0.00,WUHU216HW,2013-03-06 07:21:00,
2013-03-06 02:26:00,28.6,18.4,29.94,NNE,23,0.0,0.0,65,0.00,,,0.00,WUHU216HW,2013-03-06 07:26:00,
2013-03-06 02:31:00,28.8,18.6,29.94,NNE,23,0.0,0.0,65,0.00,,,0.00,WUHU216HW,2013-03-06 07:31:00,
2013-03-06 02:36:00,28.8,17.8,29.94,NNE,23,0.0,0.0,63,0.00,,,0.00,WUHU216HW,2013-03-06 07:36:00,
2013-03-06 02:41:00,28.6,16.1,29.94,North,0,1.1,1.1,59,0.00,,,0.00,WUHU216HW,2013-03-06 07:41:00,
2013-03-06 02:46:00,28.6,15.3,29.94,North,0,0.0,1.1,57,0.00,,,0.00,WUHU216HW,2013-03-06 07:46:00,
2013-03-06 02:51:00,28.6,14.9,29.93,NNW,338,1.1,1.1,56,0.00,,,0.00,WUHU216HW,2013-03-06 07:51:00,
2013-03-06 02:56:00,28.8,15.8,29.94,NNW,338,1.1,1.1,58,0.00,,,0.00,WUHU216HW,2013-03-06 07:56:00,
2013-03-06 03:01:00,28.8,15.8,29.93,NW,315,1.3,1.8,58,0.00,,,0.00,WUHU216HW,2013-03-06 08:01:00,
2013-03-06 03:06:00,29.0,16.0,29.93,NW,315,1.1,1.8,58,0.00,,,0.00,WUHU216HW,2013-03-06 08:06:00,
2013-03-06 03:11:00,29.2,17.4,29.94,NNW,338,0.0,1.6,61,0.00,,,0.00,WUHU216HW,2013-03-06 08:11:00,
2013-03-06 03:16:00,29.2,17.7,29.94,NNW,338,0.0,0.9,62,0.00,,,0.00,WUHU216HW,2013-03-06 08:16:00,
2013-03-06 03:21:00,29.2,18.1,29.94,NNW,338,0.0,0.0,63,0.00,,,0.00,WUHU216HW,2013-03-06 08:21:00,
2013-03-06 03:26:00,29.2,18.5,29.94,NNW,338,0.0,0.0,64,0.00,,,0.00,WUHU216HW,2013-03-06 08:26:00,
2013-03-06 03:31:00,29.2,18.8,29.94,SE,135,1.1,1.1,65,0.00,,,0.00,WUHU216HW,2013-03-06 08:31:00,
2013-03-06 03:36:00,29.2,18.8,29.94,SE,135,0.4,1.1,65,0.00,,,0.00,WUHU216HW,2013-03-06 08:36:00,
2013-03-06 03:41:00,29.2,19.2,29.94,SE,135,0.0,1.1,66,0.00,,,0.00,WUHU216HW,2013-03-06 08:41:00,
2013-03-06 03:46:00,29.0,18.6,29.94,SE,135,0.4,0.9,65,0.00,,,0.00,WUHU216HW,2013-03-06 08:46:00,
2013-03-06 03:51:00,28.8,17.8,29.94,WNW,293,0.9,0.9,63,0.00,,,0.00,WUHU216HW,2013-03-06 08:51:00,
2013-03-06 03:56:00,28.8,17.8,29.94,WNW,293,0.0,1.1,63,0.00,,,0.00,WUHU216HW,2013-03-06 08:56:00,
2013-03-06 04:01:00,28.8,17.8,29.94,North,0,0.0,1.1,63,0.00,,,0.00,WUHU216HW,2013-03-06 09:01:00,
2013-03-06 04:06:00,28.8,18.2,29.94,North,0,0.0,0.4,64,0.00,,,0.00,WUHU216HW,2013-03-06 09:06:00,
2013-03-06 04:11:00,28.8,17.8,29.95,North,0,0.2,0.2,63,0.00,,,0.00,WUHU216HW,2013-03-06 09:11:00,
2013-03-06 04:17:00,28.8,17.5,29.94,North,0,0.0,0.7,62,0.00,,,0.00,WUHU216HW,2013-03-06 09:17:00,
2013-03-06 04:22:00,28.8,17.5,29.95,North,0,0.0,0.7,62,0.00,,,0.00,WUHU216HW,2013-03-06 09:22:00,
2013-03-06 04:27:00,28.8,17.8,29.95,North,0,0.0,0.4,63,0.00,,,0.00,WUHU216HW,2013-03-06 09:27:00,
2013-03-06 04:32:00,28.8,17.8,29.95,North,0,0.0,0.0,63,0.00,,,0.00,WUHU216HW,2013-03-06 09:32:00,
2013-03-06 04:37:00,28.8,17.8,29.95,North,0,0.0,0.0,63,0.00,,,0.00,WUHU216HW,2013-03-06 09:37:00,
2013-03-06 04:42:00,28.8,18.2,29.95,North,0,0.0,0.0,64,0.00,,,0.00,WUHU216HW,2013-03-06 09:42:00,
2013-03-06 04:47:00,28.8,17.1,29.95,North,0,0.7,0.7,61,0.00,,,0.00,WUHU216HW,2013-03-06 09:47:00,
2013-03-06 04:52:00,28.8,17.5,29.95,North,0,0.0,0.7,62,0.00,,,0.00,WUHU216HW,2013-03-06 09:52:00,
2013-03-06 04:57:00,28.8,17.1,29.95,North,0,0.9,0.9,61,0.00,,,0.00,WUHU216HW,2013-03-06 09:57:00,
2013-03-06 05:02:00,28.8,16.8,29.95,North,0,0.0,0.9,60,0.00,,,0.00,WUHU216HW,2013-03-06 10:02:00,
2013-03-06 05:07:00,29.0,17.6,29.95,North,0,0.0,0.9,62,0.00,,,0.00,WUHU216HW,2013-03-06 10:07:00,
2013-03-06 05:12:00,29.0,17.6,29.96,East,90,0.0,0.0,62,0.00,,,0.00,WUHU216HW,2013-03-06 10:12:00,
2013-03-06 05:17:00,29.0,17.6,29.96,SSW,203,0.4,1.1,62,0.00,,,0.00,WUHU216HW,2013-03-06 10:17:00,
2013-03-06 05:22:00,29.0,17.6,29.95,SSW,203,0.0,1.1,62,0.00,,,0.00,WUHU216HW,2013-03-06 10:22:00,
2013-03-06 05:27:00,29.0,17.6,29.96,SW,225,0.9,0.9,62,0.00,,,0.00,WUHU216HW,2013-03-06 10:27:00,
2013-03-06 05:32:00,29.0,17.6,29.96,SW,225,0.0,0.9,62,0.00,,,0.00,WUHU216HW,2013-03-06 10:32:00,
2013-03-06 05:37:00,29.2,18.1,29.96,SW,225,0.0,0.4,63,0.00,,,0.00,WUHU216HW,2013-03-06 10:37:00,
2013-03-06 05:42:00,29.2,17.7,29.96,WSW,248,0.0,0.9,62,0.00,,,0.00,WUHU216HW,2013-03-06 10:42:00,
2013-03-06 05:47:00,29.2,17.7,29.96,WSW,248,0.0,0.9,62,0.00,,,0.00,WUHU216HW,2013-03-06 10:47:00,
2013-03-06 05:52:00,29.2,15.4,29.96,North,0,0.4,0.9,56,0.00,,,0.00,WUHU216HW,2013-03-06 10:52:00,
2013-03-06 05:57:00,29.2,14.6,29.96,NNW,338,1.1,1.3,54,0.00,,,0.00,WUHU216HW,2013-03-06 10:57:00,
2013-03-06 06:02:00,29.2,14.6,29.96,NNW,338,0.2,1.3,54,0.00,,,0.00,WUHU216HW,2013-03-06 11:02:00,
2013-03-06 06:07:00,29.2,13.7,29.96,North,0,0.7,1.1,52,0.00,,,0.00,WUHU216HW,2013-03-06 11:07:00,
2013-03-06 06:12:00,29.2,13.7,29.96,NNW,338,1.1,1.3,52,0.00,,,0.00,WUHU216HW,2013-03-06 11:12:00,
2013-03-06 06:17:00,29.2,12.4,29.97,NNW,338,2.0,2.0,49,0.00,,,0.00,WUHU216HW,2013-03-06 11:17:00,
2013-03-06 06:22:00,29.2,13.7,29.97,NNW,338,0.7,2.0,52,0.00,,,0.00,WUHU216HW,2013-03-06 11:22:00,
2013-03-06 06:27:00,29.2,13.3,29.97,NW,315,1.8,1.8,51,0.00,,,0.00,WUHU216HW,2013-03-06 11:27:00,
2013-03-06 06:32:00,29.2,12.4,29.97,NW,315,1.6,1.8,49,0.00,,,0.00,WUHU216HW,2013-03-06 11:32:00,
2013-03-06 06:37:00,29.2,11.3,29.98,NW,315,1.8,2.2,47,0.00,,,0.00,WUHU216HW,2013-03-06 11:37:00,
2013-03-06 06:42:00,29.5,12.7,29.98,NNW,338,0.7,2.5,49,0.00,,,0.00,WUHU216HW,2013-03-06 11:42:00,
2013-03-06 06:47:00,29.5,12.3,29.98,NNW,338,1.1,2.5,48,0.00,,,0.00,WUHU216HW,2013-03-06 11:47:00,
2013-03-06 06:52:00,29.5,12.3,29.98,NW,315,1.8,2.0,48,0.00,,,0.00,WUHU216HW,2013-03-06 11:52:00,
2013-03-06 06:57:00,29.7,12.9,29.98,NNW,338,0.4,2.0,49,0.00,,,0.00,WUHU216HW,2013-03-06 11:57:00,
2013-03-06 07:02:00,29.7,12.3,29.99,NW,315,2.7,2.7,48,0.00,,,0.00,WUHU216HW,2013-03-06 12:02:00,
2013-03-06 07:07:00,29.9,11.5,29.98,NNW,338,1.6,3.4,46,0.00,,,0.00,WUHU216HW,2013-03-06 12:07:00,
2013-03-06 07:12:00,30.1,10.7,29.98,NNW,338,2.7,3.4,44,0.00,,,0.00,WUHU216HW,2013-03-06 12:12:00,
2013-03-06 07:17:00,30.4,11.5,29.98,NNW,338,1.3,2.7,45,0.00,,,0.00,WUHU216HW,2013-03-06 12:17:00,
2013-03-06 07:22:00,30.8,13.9,29.98,North,0,1.6,2.0,49,0.00,,,0.00,WUHU216HW,2013-03-06 12:22:00,
2013-03-06 07:27:00,31.0,14.5,29.98,North,0,1.3,2.0,50,0.00,,,0.00,WUHU216HW,2013-03-06 12:27:00,
2013-03-06 07:33:00,31.3,15.7,29.98,NNW,338,2.5,3.6,52,0.00,,,0.00,WUHU216HW,2013-03-06 12:33:00,
2013-03-06 07:38:00,31.7,18.2,29.98,NNW,338,2.7,3.6,57,0.00,,,0.00,WUHU216HW,2013-03-06 12:38:00,
2013-03-06 07:43:00,32.0,19.4,29.98,North,0,1.1,2.7,59,0.00,,,0.00,WUHU216HW,2013-03-06 12:43:00,
2013-03-06 07:48:00,32.0,19.8,29.98,NNW,338,1.1,2.5,60,0.00,,,0.00,WUHU216HW,2013-03-06 12:48:00,
2013-03-06 07:53:00,32.4,20.5,29.98,NW,315,1.8,2.5,61,0.00,,,0.00,WUHU216HW,2013-03-06 12:53:00,
2013-03-06 07:58:00,32.8,21.2,29.99,NNW,338,0.9,1.8,62,0.00,,,0.00,WUHU216HW,2013-03-06 12:58:00,
2013-03-06 08:03:00,32.9,21.7,29.99,NNW,338,1.1,1.3,63,0.00,,,0.00,WUHU216HW,2013-03-06 13:03:00,
2013-03-06 08:08:00,33.3,23.1,29.99,NW,315,2.2,2.2,66,0.00,,,0.00,WUHU216HW,2013-03-06 13:08:00,
2013-03-06 08:13:00,33.5,23.6,29.99,North,0,1.3,2.2,67,0.00,,,0.00,WUHU216HW,2013-03-06 13:13:00,
2013-03-06 08:18:00,33.8,23.2,29.99,WNW,293,1.3,2.0,65,0.00,,,0.00,WUHU216HW,2013-03-06 13:18:00,
2013-03-06 08:23:00,34.6,23.9,29.99,NE,45,0.0,2.0,65,0.00,,,0.00,WUHU216HW,2013-03-06 13:23:00,
2013-03-06 08:28:00,35.6,26.5,30.00,NE,45,0.4,1.1,69,0.00,,,0.00,WUHU216HW,2013-03-06 13:28:00,
2013-03-06 08:33:00,36.2,26.3,30.00,NE,45,0.0,1.1,67,0.00,,,0.00,WUHU216HW,2013-03-06 13:33:00,
2013-03-06 08:38:00,36.9,27.7,30.00,SW,225,0.9,2.0,69,0.00,,,0.00,WUHU216HW,2013-03-06 13:38:00,
2013-03-06 08:43:00,37.3,28.8,30.00,East,90,0.2,2.7,71,0.00,,,0.00,WUHU216HW,2013-03-06 13:43:00,
2013-03-06 08:48:00,37.6,30.1,30.00,SSE,158,0.4,2.7,74,0.00,,,0.00,WUHU216HW,2013-03-06 13:48:00,
2013-03-06 08:53:00,38.0,30.4,30.00,SSW,203,5.8,5.8,74,0.00,,,0.00,WUHU216HW,2013-03-06 13:53:00,
2013-03-06 08:58:00,38.2,31.2,30.01,SE,135,9.2,9.2,76,0.00,,,0.00,WUHU216HW,2013-03-06 13:58:00,
2013-03-06 09:03:00,38.5,31.2,30.00,SSE,158,6.9,9.2,75,0.00,,,0.00,WUHU216HW,2013-03-06 14:03:00,
2013-03-06 09:08:00,38.5,31.0,30.01,East,90,5.1,8.1,74,0.00,,,0.00,WUHU216HW,2013-03-06 14:08:00,
2013-03-06 09:13:00,38.9,31.2,30.00,SE,135,1.1,8.1,74,0.00,,,0.00,WUHU216HW,2013-03-06 14:13:00,
2013-03-06 09:18:00,39.2,31.0,30.00,ESE,113,3.4,5.1,72,0.00,,,0.00,WUHU216HW,2013-03-06 14:18:00,
2013-03-06 09:23:00,39.2,29.9,30.00,SSE,158,4.9,6.5,69,0.00,,,0.00,WUHU216HW,2013-03-06 14:23:00,
2013-03-06 09:28:00,39.4,30.8,30.01,ESE,113,1.8,6.5,71,0.00,,,0.00,WUHU216HW,2013-03-06 14:28:00,
2013-03-06 09:33:00,39.6,30.3,30.01,SE,135,4.0,7.8,69,0.00,,,0.00,WUHU216HW,2013-03-06 14:33:00,
2013-03-06 09:38:00,39.6,29.4,30.01,ESE,113,4.7,7.8,67,0.00,,,0.00,WUHU216HW,2013-03-06 14:38:00,
2013-03-06 09:43:00,39.4,29.3,30.00,ESE,113,7.2,7.6,67,0.00,,,0.00,WUHU216HW,2013-03-06 14:43:00,
2013-03-06 09:48:00,39.6,29.9,30.00,SE,135,4.3,7.6,68,0.00,,,0.00,WUHU216HW,2013-03-06 14:48:00,
2013-03-06 09:53:00,39.8,29.6,30.00,South,180,2.5,6.7,67,0.00,,,0.00,WUHU216HW,2013-03-06 14:53:00,
2013-03-06 09:58:00,39.6,29.4,30.00,SSE,158,8.9,9.2,67,0.00,,,0.00,WUHU216HW,2013-03-06 14:58:00,
2013-03-06 10:03:00,39.6,29.1,30.00,SSE,158,3.4,9.2,66,0.00,,,0.00,WUHU216HW,2013-03-06 15:03:00,
2013-03-06 10:08:00,39.8,29.3,30.00,ESE,113,5.8,8.1,66,0.00,,,0.00,WUHU216HW,2013-03-06 15:08:00,
2013-03-06 10:13:00,39.8,29.3,30.00,SSE,158,6.5,9.4,66,0.00,,,0.00,WUHU216HW,2013-03-06 15:13:00,
2013-03-06 10:18:00,40.1,29.3,30.00,SSE,158,9.2,9.4,65,0.00,,,0.00,WUHU216HW,2013-03-06 15:18:00,
2013-03-06 10:23:00,40.1,29.6,30.00,SSE,158,5.1,9.2,66,0.00,,,0.00,WUHU216HW,2013-03-06 15:23:00,
2013-03-06 10:28:00,40.0,28.7,30.00,SSE,158,9.6,9.6,64,0.00,,,0.00,WUHU216HW,2013-03-06 15:28:00,
2013-03-06 10:34:00,39.6,28.7,30.00,SE,135,8.5,9.6,65,0.00,,,0.00,WUHU216HW,2013-03-06 15:34:00,
2013-03-06 10:39:00,39.8,28.9,30.00,SSE,158,4.0,8.5,65,0.00,,,0.00,WUHU216HW,2013-03-06 15:39:00,
2013-03-06 10:44:00,40.0,29.4,30.00,SE,135,3.6,8.3,66,0.00,,,0.00,WUHU216HW,2013-03-06 15:44:00,
2013-03-06 10:49:00,40.1,29.3,30.01,South,180,3.1,10.3,65,0.00,,,0.00,WUHU216HW,2013-03-06 15:49:00,
2013-03-06 10:54:00,40.0,29.4,30.00,SSE,158,5.4,10.3,66,0.00,,,0.00,WUHU216HW,2013-03-06 15:54:00,
2013-03-06 10:59:00,40.5,29.6,30.01,NNE,23,1.6,7.8,65,0.00,,,0.00,WUHU216HW,2013-03-06 15:59:00,
2013-03-06 11:04:00,41.0,29.8,30.00,SE,135,3.8,5.6,64,0.00,,,0.00,WUHU216HW,2013-03-06 16:04:00,
2013-03-06 11:09:00,41.4,30.5,30.01,ESE,113,1.8,5.4,65,0.00,,,0.00,WUHU216HW,2013-03-06 16:09:00,
2013-03-06 11:14:00,41.4,29.7,30.01,SE,135,6.9,8.3,63,0.00,,,0.00,WUHU216HW,2013-03-06 16:14:00,
2013-03-06 11:19:00,41.4,29.7,30.00,SE,135,5.4,8.3,63,0.00,,,0.00,WUHU216HW,2013-03-06 16:19:00,
2013-03-06 11:24:00,41.6,29.9,30.00,SSW,203,5.6,5.6,63,0.00,,,0.00,WUHU216HW,2013-03-06 16:24:00,
2013-03-06 11:29:00,41.0,29.0,30.00,SE,135,9.2,9.2,62,0.00,,,0.00,WUHU216HW,2013-03-06 16:29:00,
2013-03-06 11:34:00,40.7,29.1,30.00,SE,135,8.1,9.2,63,0.00,,,0.00,WUHU216HW,2013-03-06 16:34:00,
2013-03-06 11:39:00,40.7,29.1,30.01,SE,135,3.4,10.5,63,0.00,,,0.00,WUHU216HW,2013-03-06 16:39:00,
2013-03-06 11:44:00,41.2,29.5,30.00,SE,135,5.4,10.5,63,0.00,,,0.00,WUHU216HW,2013-03-06 16:44:00,
2013-03-06 11:49:00,41.0,28.6,30.00,ESE,113,3.8,5.6,61,0.00,,,0.00,WUHU216HW,2013-03-06 16:49:00,
2013-03-06 11:54:00,41.2,29.2,30.00,SE,135,4.0,5.6,62,0.00,,,0.00,WUHU216HW,2013-03-06 16:54:00,
2013-03-06 11:59:00,41.4,29.7,30.00,SE,135,2.5,5.6,63,0.00,,,0.00,WUHU216HW,2013-03-06 16:59:00,
2013-03-06 12:04:00,41.4,29.3,30.00,SSE,158,4.5,5.6,62,0.00,,,0.00,WUHU216HW,2013-03-06 17:04:00,
2013-03-06 12:09:00,41.8,30.1,29.99,SE,135,2.9,6.0,63,0.00,,,0.00,WUHU216HW,2013-03-06 17:09:00,
2013-03-06 12:14:00,41.8,29.3,29.99,SE,135,4.5,6.0,61,0.00,,,0.00,WUHU216HW,2013-03-06 17:14:00,
2013-03-06 12:19:00,42.1,30.4,29.99,SE,135,1.1,4.5,63,0.00,,,0.00,WUHU216HW,2013-03-06 17:19:00,
2013-03-06 12:24:00,42.3,29.4,29.99,ESE,113,0.9,3.4,60,0.00,,,0.00,WUHU216HW,2013-03-06 17:24:00,
2013-03-06 12:29:00,42.1,29.3,29.98,SSE,158,3.8,5.8,60,0.00,,,0.00,WUHU216HW,2013-03-06 17:29:00,
2013-03-06 12:34:00,41.8,28.9,29.98,SE,135,4.7,6.5,60,0.00,,,0.00,WUHU216HW,2013-03-06 17:34:00,
2013-03-06 12:39:00,41.4,29.0,29.98,SE,135,1.8,6.5,61,0.00,,,0.00,WUHU216HW,2013-03-06 17:39:00,
2013-03-06 12:44:00,41.2,28.5,29.98,SE,135,3.1,5.4,60,0.00,,,0.00,WUHU216HW,2013-03-06 17:44:00,
2013-03-06 12:49:00,41.0,28.6,29.98,SE,135,2.7,5.4,61,0.00,,,0.00,WUHU216HW,2013-03-06 17:49:00,
2013-03-06 12:54:00,40.7,28.3,29.98,SSE,158,4.9,7.6,61,0.00,,,0.00,WUHU216HW,2013-03-06 17:54:00,
2013-03-06 12:59:00,40.3,27.9,29.99,SSE,158,4.7,7.6,61,0.00,,,0.00,WUHU216HW,2013-03-06 17:59:00,
2013-03-06 13:04:00,40.1,27.7,29.99,SSE,158,4.3,5.8,61,0.00,,,0.00,WUHU216HW,2013-03-06 18:04:00,
2013-03-06 13:09:00,40.0,27.5,29.99,SE,135,2.5,6.0,61,0.00,,,0.00,WUHU216HW,2013-03-06 18:09:00,
2013-03-06 13:14:00,39.8,28.2,30.00,SSE,158,4.7,6.0,63,0.00,,,0.00,WUHU216HW,2013-03-06 18:14:00,
2013-03-06 13:19:00,39.4,27.8,30.00,SSE,158,5.6,6.0,63,0.00,,,0.00,WUHU216HW,2013-03-06 18:19:00,
2013-03-06 13:25:00,39.2,27.6,30.00,ESE,113,8.5,8.5,63,0.00,,,0.00,WUHU216HW,2013-03-06 18:25:00,
2013-03-06 13:30:00,38.9,27.3,30.00,SE,135,0.7,8.5,63,0.00,,,0.00,WUHU216HW,2013-03-06 18:30:00,
2013-03-06 13:35:00,38.7,27.1,30.00,SE,135,4.9,6.9,63,0.00,,,0.00,WUHU216HW,2013-03-06 18:35:00,
2013-03-06 13:40:00,38.5,26.6,30.00,SE,135,3.4,4.9,62,0.00,,,0.00,WUHU216HW,2013-03-06 18:40:00,
2013-03-06 13:45:00,38.7,27.1,30.00,SE,135,0.9,4.3,63,0.00,,,0.00,WUHU216HW,2013-03-06 18:45:00,
2013-03-06 13:50:00,38.9,26.1,29.99,NNW,338,2.0,3.4,60,0.00,,,0.00,WUHU216HW,2013-03-06 18:50:00,
2013-03-06 13:55:00,39.2,26.8,29.99,SW,225,2.5,3.1,61,0.00,,,0.00,WUHU216HW,2013-03-06 18:55:00,
2013-03-06 14:00:00,39.8,27.4,29.99,SE,135,5.1,6.5,61,0.00,,,0.00,WUHU216HW,2013-03-06 19:00:00,
2013-03-06 14:05:00,40.1,26.9,29.99,SSE,158,3.4,6.5,59,0.00,,,0.00,WUHU216HW,2013-03-06 19:05:00,
2013-03-06 14:10:00,40.5,27.3,29.99,ENE,68,1.8,5.8,59,0.00,,,0.00,WUHU216HW,2013-03-06 19:10:00,
2013-03-06 14:15:00,41.0,26.9,29.99,ESE,113,3.6,4.5,57,0.00,,,0.00,WUHU216HW,2013-03-06 19:15:00,
2013-03-06 14:20:00,41.4,27.7,29.99,SSE,158,5.8,5.8,58,0.00,,,0.00,WUHU216HW,2013-03-06 19:20:00,
2013-03-06 14:25:00,41.4,26.8,29.99,ESE,113,3.6,5.8,56,0.00,,,0.00,WUHU216HW,2013-03-06 19:25:00,
2013-03-06 14:30:00,41.2,27.6,29.99,SSE,158,4.0,5.1,58,0.00,,,0.00,WUHU216HW,2013-03-06 19:30:00,
2013-03-06 14:35:00,40.9,25.4,29.99,SE,135,2.7,6.7,54,0.00,,,0.00,WUHU216HW,2013-03-06 19:35:00,
2013-03-06 14:40:00,40.5,26.8,30.00,SE,135,1.8,6.7,58,0.00,,,0.00,WUHU216HW,2013-03-06 19:40:00,
2013-03-06 14:45:00,40.3,26.6,30.00,SSE,158,2.5,4.3,58,0.00,,,0.00,WUHU216HW,2013-03-06 19:45:00,
2013-03-06 14:50:00,40.0,26.7,29.99,SE,135,2.9,6.5,59,0.00,,,0.00,WUHU216HW,2013-03-06 19:50:00,
2013-03-06 14:55:00,39.8,26.6,29.99,ESE,113,1.1,6.5,59,0.00,,,0.00,WUHU216HW,2013-03-06 19:55:00,
2013-03-06 15:00:00,39.6,26.8,30.00,SE,135,4.0,4.0,60,0.00,,,0.00,WUHU216HW,2013-03-06 20:00:00,
2013-03-06 15:05:00,39.4,26.6,30.00,SE,135,2.5,5.1,60,0.00,,,0.00,WUHU216HW,2013-03-06 20:05:00,
2013-03-06 15:10:00,39.2,26.8,30.00,SSE,158,0.4,5.1,61,0.00,,,0.00,WUHU216HW,2013-03-06 20:10:00,
2013-03-06 15:15:00,39.1,26.6,30.00,SE,135,0.9,2.9,61,0.00,,,0.00,WUHU216HW,2013-03-06 20:15:00,
2013-03-06 15:20:00,39.2,27.2,30.00,SW,225,1.3,2.5,62,0.00,,,0.00,WUHU216HW,2013-03-06 20:20:00,
2013-03-06 15:25:00,39.2,27.2,30.00,West,270,2.7,2.7,62,0.00,,,0.00,WUHU216HW,2013-03-06 20:25:00,
2013-03-06 15:30:00,39.2,25.2,29.99,SE,135,2.2,4.5,57,0.00,,,0.00,WUHU216HW,2013-03-06 20:30:00,
2013-03-06 15:35:00,39.4,26.6,30.00,SE,135,0.9,4.5,60,0.00,,,0.00,WUHU216HW,2013-03-06 20:35:00,
2013-03-06 15:40:00,39.4,27.0,30.00,SSE,158,5.6,5.6,61,0.00,,,0.00,WUHU216HW,2013-03-06 20:40:00,
2013-03-06 15:45:00,39.4,27.0,30.00,SE,135,2.5,5.6,61,0.00,,,0.00,WUHU216HW,2013-03-06 20:45:00,
2013-03-06 15:50:00,39.2,26.5,29.99,NE,45,1.3,4.0,60,0.00,,,0.00,WUHU216HW,2013-03-06 20:50:00,
2013-03-06 15:55:00,39.2,26.5,29.99,North,0,0.9,3.1,60,0.00,,,0.00,WUHU216HW,2013-03-06 20:55:00,
2013-03-06 16:00:00,39.1,25.5,29.99,WNW,293,2.7,2.7,58,0.00,,,0.00,WUHU216HW,2013-03-06 21:00:00,
2013-03-06 16:05:00,39.1,25.8,29.99,East,90,0.2,2.7,59,0.00,,,0.00,WUHU216HW,2013-03-06 21:05:00,
2013-03-06 16:11:00,39.2,26.8,30.00,SE,135,2.0,2.0,61,0.00,,,0.00,WUHU216HW,2013-03-06 21:11:00,
2013-03-06 16:16:00,39.2,26.0,29.99,SE,135,1.1,4.0,59,0.00,,,0.00,WUHU216HW,2013-03-06 21:16:00,
2013-03-06 16:21:00,39.2,26.8,29.99,South,180,1.1,4.0,61,0.00,,,0.00,WUHU216HW,2013-03-06 21:21:00,
2013-03-06 16:26:00,39.2,26.8,29.99,SW,225,0.7,2.5,61,0.00,,,0.00,WUHU216HW,2013-03-06 21:26:00,
2013-03-06 16:31:00,39.2,26.8,29.99,ESE,113,3.6,4.7,61,0.00,,,0.00,WUHU216HW,2013-03-06 21:31:00,
2013-03-06 16:36:00,39.1,26.6,29.99,SSW,203,0.7,4.7,61,0.00,,,0.00,WUHU216HW,2013-03-06 21:36:00,
2013-03-06 16:41:00,38.9,26.6,30.00,SSE,158,2.5,3.4,61,0.00,,,0.00,WUHU216HW,2013-03-06 21:41:00,
2013-03-06 16:46:00,38.7,26.0,30.00,SSE,158,1.8,3.4,60,0.00,,,0.00,WUHU216HW,2013-03-06 21:46:00,
2013-03-06 16:51:00,38.5,26.6,30.00,SE,135,1.8,2.9,62,0.00,,,0.00,WUHU216HW,2013-03-06 21:51:00,
2013-03-06 16:56:00,38.5,26.6,30.00,South,180,0.0,4.9,62,0.00,,,0.00,WUHU216HW,2013-03-06 21:56:00,
2013-03-06 17:01:00,38.2,26.3,30.00,NE,45,3.4,4.9,62,0.00,,,0.00,WUHU216HW,2013-03-06 22:01:00,
2013-03-06 17:06:00,38.0,26.5,30.00,SSE,158,3.1,4.5,63,0.00,,,0.00,WUHU216HW,2013-03-06 22:06:00,
2013-03-06 17:11:00,37.8,26.3,30.01,SE,135,2.9,4.7,63,0.00,,,0.00,WUHU216HW,2013-03-06 22:11:00,
2013-03-06 17:16:00,37.4,26.4,30.01,SSE,158,1.8,4.7,64,0.00,,,0.00,WUHU216HW,2013-03-06 22:16:00,
2013-03-06 17:21:00,37.1,26.4,30.01,SSE,158,4.3,7.4,65,0.00,,,0.00,WUHU216HW,2013-03-06 22:21:00,
2013-03-06 17:26:00,36.7,26.8,30.02,South,180,3.4,7.4,67,0.00,,,0.00,WUHU216HW,2013-03-06 22:26:00,
2013-03-06 17:31:00,36.4,26.5,30.02,SSE,158,2.5,4.0,67,0.00,,,0.00,WUHU216HW,2013-03-06 22:31:00,
2013-03-06 17:36:00,36.2,26.7,30.02,SSE,158,3.4,6.3,68,0.00,,,0.00,WUHU216HW,2013-03-06 22:36:00,
2013-03-06 17:41:00,36.0,26.8,30.03,ESE,113,2.7,6.3,69,0.00,,,0.00,WUHU216HW,2013-03-06 22:41:00,
2013-03-06 17:46:00,35.8,26.7,30.02,SSE,158,2.0,3.6,69,0.00,,,0.00,WUHU216HW,2013-03-06 22:46:00,
2013-03-06 17:51:00,35.6,26.8,30.02,SE,135,2.0,3.6,70,0.00,,,0.00,WUHU216HW,2013-03-06 22:51:00,
2013-03-06 17:56:00,35.6,26.5,30.03,SE,135,1.1,3.6,69,0.00,,,0.00,WUHU216HW,2013-03-06 22:56:00,
2013-03-06 18:01:00,35.5,26.6,30.03,SSE,158,0.4,3.4,70,0.00,,,0.00,WUHU216HW,2013-03-06 23:01:00,
2013-03-06 18:06:00,35.5,26.6,30.03,South,180,0.4,2.5,70,0.00,,,0.00,WUHU216HW,2013-03-06 23:06:00,
2013-03-06 18:11:00,35.5,27.0,30.03,SW,225,1.8,2.5,71,0.00,,,0.00,WUHU216HW,2013-03-06 23:11:00,
2013-03-06 18:16:00,35.5,26.6,30.03,West,270,0.4,4.7,70,0.00,,,0.00,WUHU216HW,2013-03-06 23:16:00,
2013-03-06 18:21:00,35.5,27.0,30.03,East,90,0.9,4.7,71,0.00,,,0.00,WUHU216HW,2013-03-06 23:21:00,
2013-03-06 18:26:00,35.3,26.8,30.03,NW,315,0.0,3.1,71,0.00,,,0.00,WUHU216HW,2013-03-06 23:26:00,
2013-03-06 18:31:00,35.3,26.8,30.03,NW,315,0.4,1.3,71,0.00,,,0.00,WUHU216HW,2013-03-06 23:31:00,
2013-03-06 18:36:00,34.9,26.1,30.03,WNW,293,0.7,0.9,70,0.00,,,0.00,WUHU216HW,2013-03-06 23:36:00,
2013-03-06 18:41:00,34.9,26.5,30.03,West,270,0.4,1.1,71,0.00,,,0.00,WUHU216HW,2013-03-06 23:41:00,
2013-03-06 18:46:00,34.7,25.9,30.03,West,270,0.7,1.1,70,0.00,,,0.00,WUHU216HW,2013-03-06 23:46:00,
2013-03-06 18:52:00,34.6,26.1,30.03,SW,225,0.4,0.9,71,0.00,,,0.00,WUHU216HW,2013-03-06 23:52:00,
2013-03-06 18:57:00,34.4,25.9,30.03,ESE,113,1.3,1.3,71,0.00,,,0.00,WUHU216HW,2013-03-06 23:57:00,
2013-03-06 19:02:00,34.4,25.9,30.03,SSW,203,0.0,1.3,71,0.00,,,0.00,WUHU216HW,2013-03-07 00:02:00,
2013-03-06 19:07:00,34.2,25.4,30.04,SSW,203,0.2,0.7,70,0.00,,,0.00,WUHU216HW,2013-03-07 00:07:00,
2013-03-06 19:12:00,34.0,25.6,30.04,South,180,0.4,1.1,71,0.00,,,0.00,WUHU216HW,2013-03-07 00:12:00,
2013-03-06 19:17:00,33.8,25.4,30.04,SSE,158,1.8,3.4,71,0.00,,,0.00,WUHU216HW,2013-03-07 00:17:00,
2013-03-06 19:22:00,33.8,25.7,30.04,SSE,158,1.8,3.4,72,0.00,,,0.00,WUHU216HW,2013-03-07 00:22:00,
2013-03-06 19:27:00,33.8,25.7,30.04,SSE,158,0.7,1.8,72,0.00,,,0.00,WUHU216HW,2013-03-07 00:27:00,
2013-03-06 19:32:00,34.0,25.8,30.04,SSE,158,1.6,3.4,72,0.00,,,0.00,WUHU216HW,2013-03-07 00:32:00,
2013-03-06 19:37:00,34.2,26.0,30.04,SSE,158,2.5,3.8,72,0.00,,,0.00,WUHU216HW,2013-03-07 00:37:00,
2013-03-06 19:42:00,34.2,26.4,30.04,SSE,158,3.1,3.8,73,0.00,,,0.00,WUHU216HW,2013-03-07 00:42:00,
2013-03-06 19:47:00,34.4,26.6,30.05,East,90,4.0,7.4,73,0.00,,,0.00,WUHU216HW,2013-03-07 00:47:00,
2013-03-06 19:52:00,34.4,26.2,30.05,SSE,158,5.4,7.4,72,0.00,,,0.00,WUHU216HW,2013-03-07 00:52:00,
2013-03-06 19:57:00,34.4,25.9,30.04,SSE,158,2.0,6.9,71,0.00,,,0.00,WUHU216HW,2013-03-07 00:57:00,
2013-03-06 20:02:00,34.6,26.1,30.04,SSE,158,2.9,6.9,71,0.00,,,0.00,WUHU216HW,2013-03-07 01:02:00,
2013-03-06 20:07:00,34.4,25.9,30.04,SE,135,2.7,6.9,71,0.00,,,0.00,WUHU216HW,2013-03-07 01:07:00,
2013-03-06 20:12:00,34.2,25.4,30.04,SSE,158,1.8,4.7,70,0.00,,,0.00,WUHU216HW,2013-03-07 01:12:00,
2013-03-06 20:17:00,34.2,25.0,30.04,SE,135,2.9,4.7,69,0.00,,,0.00,WUHU216HW,2013-03-07 01:17:00,
2013-03-06 20:22:00,34.2,25.0,30.04,ESE,113,2.9,4.7,69,0.00,,,0.00,WUHU216HW,2013-03-07 01:22:00,
2013-03-06 20:27:00,34.2,25.0,30.03,SSE,158,0.4,2.9,69,0.00,,,0.00,WUHU216HW,2013-03-07 01:27:00,
2013-03-06 20:32:00,34.2,25.0,30.03,SSW,203,1.1,2.5,69,0.00,,,0.00,WUHU216HW,2013-03-07 01:32:00,
2013-03-06 20:37:00,34.0,24.8,30.03,SE,135,2.9,2.9,69,0.00,,,0.00,WUHU216HW,2013-03-07 01:37:00,
2013-03-06 20:42:00,33.8,24.7,30.03,SSE,158,2.2,2.9,69,0.00,,,0.00,WUHU216HW,2013-03-07 01:42:00,
2013-03-06 20:47:00,34.0,25.2,30.03,SSE,158,1.1,5.8,70,0.00,,,0.00,WUHU216HW,2013-03-07 01:47:00,
2013-03-06 20:52:00,33.8,25.0,30.03,NW,315,1.6,5.8,70,0.00,,,0.00,WUHU216HW,2013-03-07 01:52:00,
2013-03-06 20:57:00,33.8,24.7,30.03,East,90,1.1,3.4,69,0.00,,,0.00,WUHU216HW,2013-03-07 01:57:00,
2013-03-06 21:02:00,33.8,24.7,30.03,SE,135,2.0,3.4,69,0.00,,,0.00,WUHU216HW,2013-03-07 02:02:00,
2013-03-06 21:07:00,33.8,25.0,30.03,ESE,113,0.2,2.2,70,0.00,,,0.00,WUHU216HW,2013-03-07 02:07:00,
2013-03-06 21:12:00,33.7,24.5,30.03,East,90,0.0,2.2,69,0.00,,,0.00,WUHU216HW,2013-03-07 02:12:00,
2013-03-06 21:17:00,33.5,24.7,30.03,East,90,0.0,0.7,70,0.00,,,0.00,WUHU216HW,2013-03-07 02:17:00,
2013-03-06 21:22:00,33.5,24.7,30.03,SSE,158,0.0,2.5,70,0.00,,,0.00,WUHU216HW,2013-03-07 02:22:00,
2013-03-06 21:27:00,33.5,24.7,30.03,ESE,113,0.0,2.5,70,0.00,,,0.00,WUHU216HW,2013-03-07 02:27:00,
2013-03-06 21:32:00,33.5,24.3,30.03,ENE,68,0.4,0.9,69,0.00,,,0.00,WUHU216HW,2013-03-07 02:32:00,
2013-03-06 21:37:00,33.5,24.7,30.02,WSW,248,0.9,2.0,70,0.00,,,0.00,WUHU216HW,2013-03-07 02:37:00,
2013-03-06 21:42:00,33.5,24.3,30.03,SE,135,1.6,2.0,69,0.00,,,0.00,WUHU216HW,2013-03-07 02:42:00,
2013-03-06 21:47:00,33.5,24.7,30.03,WSW,248,1.6,1.8,70,0.00,,,0.00,WUHU216HW,2013-03-07 02:47:00,
2013-03-06 21:52:00,33.5,24.7,30.02,WSW,248,1.3,1.8,70,0.00,,,0.00,WUHU216HW,2013-03-07 02:52:00,
2013-03-06 21:57:00,33.3,25.2,30.02,NNW,338,0.7,2.5,72,0.00,,,0.00,WUHU216HW,2013-03-07 02:57:00,
2013-03-06 22:03:00,33.1,24.7,30.02,West,270,0.9,2.5,71,0.00,,,0.00,WUHU216HW,2013-03-07 03:03:00,
2013-03-06 22:08:00,33.3,24.6,30.02,NW,315,0.2,1.1,70,0.00,,,0.00,WUHU216HW,2013-03-07 03:08:00,
2013-03-06 22:13:00,33.3,24.6,30.02,ESE,113,3.4,3.4,70,0.00,,,0.00,WUHU216HW,2013-03-07 03:13:00,
2013-03-06 22:18:00,33.5,24.3,30.02,NE,45,1.3,3.4,69,0.00,,,0.00,WUHU216HW,2013-03-07 03:18:00,
2013-03-06 22:23:00,33.5,24.3,30.02,South,180,1.1,3.4,69,0.00,,,0.00,WUHU216HW,2013-03-07 03:23:00,
2013-03-06 22:28:00,33.5,24.3,30.01,East,90,0.7,1.3,69,0.00,,,0.00,WUHU216HW,2013-03-07 03:28:00,
2013-03-06 22:33:00,33.5,24.3,30.02,East,90,0.2,1.1,69,0.00,,,0.00,WUHU216HW,2013-03-07 03:33:00,
2013-03-06 22:38:00,33.3,24.6,30.02,WNW,293,0.4,1.1,70,0.00,,,0.00,WUHU216HW,2013-03-07 03:38:00,
2013-03-06 22:43:00,33.3,24.2,30.02,WNW,293,0.0,1.1,69,0.00,,,0.00,WUHU216HW,2013-03-07 03:43:00,
2013-03-06 22:48:00,33.1,24.4,30.02,North,0,0.0,1.3,70,0.00,,,0.00,WUHU216HW,2013-03-07 03:48:00,
2013-03-06 22:53:00,33.3,24.2,30.02,SE,135,0.9,2.0,69,0.00,,,0.00,WUHU216HW,2013-03-07 03:53:00,
2013-03-06 22:58:00,33.1,24.0,30.02,SSE,158,2.9,3.8,69,0.00,,,0.00,WUHU216HW,2013-03-07 03:58:00,
2013-03-06 23:03:00,33.1,24.0,30.02,SSE,158,1.8,3.8,69,0.00,,,0.00,WUHU216HW,2013-03-07 04:03:00,
2013-03-06 23:08:00,32.9,23.9,30.02,East,90,0.9,2.5,69,0.00,,,0.00,WUHU216HW,2013-03-07 04:08:00,
2013-03-06 23:13:00,32.9,24.2,30.01,ENE,68,0.2,2.5,70,0.00,,,0.00,WUHU216HW,2013-03-07 04:13:00,
2013-03-06 23:18:00,32.8,23.7,30.01,NNE,23,0.4,0.7,69,0.00,,,0.00,WUHU216HW,2013-03-07 04:18:00,
2013-03-06 23:23:00,32.8,24.0,30.02,NNW,338,0.0,0.7,70,0.00,,,0.00,WUHU216HW,2013-03-07 04:23:00,
2013-03-06 23:28:00,32.8,23.7,30.02,North,0,1.1,1.1,69,0.00,,,0.00,WUHU216HW,2013-03-07 04:28:00,
2013-03-06 23:33:00,32.8,23.7,30.02,NW,315,2.5,2.5,69,0.00,,,0.00,WUHU216HW,2013-03-07 04:33:00,
2013-03-06 23:38:00,32.8,23.3,30.02,NW,315,2.0,2.5,68,0.00,,,0.00,WUHU216HW,2013-03-07 04:38:00,
2013-03-06 23:43:00,32.9,23.5,30.01,NNW,338,2.5,2.5,68,0.00,,,0.00,WUHU216HW,2013-03-07 04:43:00,
2013-03-06 23:48:00,32.9,23.5,30.01,ENE,68,0.0,2.5,68,0.00,,,0.00,WUHU216HW,2013-03-07 04:48:00,
2013-03-06 23:53:00,32.8,23.3,30.01,SSE,158,0.7,2.5,68,0.00,,,0.00,WUHU216HW,2013-03-07 04:53:00,
2013-03-06 23:58:00,32.8,23.3,30.01,NE,45,1.6,2.5,68,0.00,,,0.00,WUHU216HW,2013-03-07 04:58:00,